|   |  | Asteroid 2011 WV74
					
					
					
					
						
					
					
						
							(Preview) 
						
							
								Orbital elements:
2011 WV74                                                Earth MOID = 0.0056 AU
Epoch 2011 Aug. 27.0 TT = JDT 2455800.5                 MPC
M 312.26541              (2000.0)            P               Q
n   0.33640392     Peri.  258.83493     -0.82151338     -0.55840640
a   2.0475225      Node   247.12246     +0.55970785     -0.75114789
e   0.6643439      Incl.    7.19016     +0.10882509     -0.35207832
P   2.93           H   27.3...                                     | Blobrana | 0 |  |  | 
		
			
			
				
				
					|   |  | Asteroid 2011 WD
					
					
					
					
						
					
					
						
							(Preview) 
						
							
								Orbital elements:
2011 WD                                                  Earth MOID = 0.0713 AU
Epoch 2011 Aug. 27.0 TT = JDT 2455800.5                 MPC
M 291.30900              (2000.0)            P               Q
n   0.61867124     Peri.  209.08047     +0.11974128     -0.98953456
a   1.3640473      Node   234.15480     +0.92900772     +0.14028183
e   0.2321244      Incl.    5.70076     +0.35015236     -0.03379893
P   1.59           H   26.1           G   0...                      | Blobrana | 1 |  |  | 
		
			
			
				
				
					|   |  | Asteroid 2006 WO3
					
					
					
					
						
					
					
						
							(Preview) 
						
							
								The 140 - 300 metre wide asteroid 2006 WO3 will make a close pass (60.8 lunar distances, 0.1563 AU), travelling at 13.38 km/second, to the Earth-Moon system on the 1st December, 2011 @ 16:45 UT ±01:42.   See more  The Lunar Dis...               | Blobrana | 1 |  |  | 
		
			
			
				
				
					|   |  | Asteroid 2011 WR74
					
					
					
					
						
					
					
						
							(Preview) 
						
							
								Orbital elements:
2011 WR74
Epoch 2011 Nov. 15.0 TT = JDT 2455880.5                 MPC
M   2.71461              (2000.0)            P               Q
n   0.03541427     Peri.  276.06672     +0.62002404     -0.77317109
a   9.1836895      Node   134.69339     +0.77339419     +0.57369580
e   0.4279665      Incl.   10.81012     +0.13202883     +0.27033238
P  27.8            H   15.3           G   0.15
From 13 observa... | Blobrana | 0 |  |  | 
		
			
			
				
				
					|   |  | Asteroid 2011 WS74
					
					
					
					
						
					
					
						
							(Preview) 
						
							
								Orbital elements:
2011 WS74                                                Earth MOID = 0.0169 AU
Epoch 2011 Aug. 27.0 TT = JDT 2455800.5                 MPC
M 182.89432              (2000.0)            P               Q
n   1.02990547     Peri.  117.83726     -0.97212144     +0.08164933
a   0.9711161      Node    67.55832     -0.17880701     -0.86455189
e   0.3505901      Incl.   13.75748     +0.15168377     -0.49586632
P   0.96           H   23.8...                                   | Blobrana | 0 |  |  | 
		
			
			
				
				
					|   |  | Asteroid 2011 WR69
					
					
					
					
						
					
					
						
							(Preview) 
						
							
								Orbital elements:
2011 WR69                                                Earth MOID = 0.0387 AU
Epoch 2011 Aug. 27.0 TT = JDT 2455800.5                 MPC
M 259.82741              (2000.0)            P               Q
n   0.66258228     Peri.   75.55751     -0.71590769     -0.63827456
a   1.3030953      Node    63.92477     +0.45482314     -0.73385289
e   0.3586314      Incl.   18.36408     +0.52972832     -0.23251993
P   1.49           H   24.6           G...                        | Blobrana | 0 |  |  | 
		
			
			
				
				
					|   |  | Asteroid 2011 WL69
					
					
					
					
						
					
					
						
							(Preview) 
						
							
								Orbital elements:
2011 WL69                                                Earth MOID = 0.0910 AU
Epoch 2011 Aug. 27.0 TT = JDT 2455800.5                 MPC
M 339.21558              (2000.0)            P               Q
n   0.21956997     Peri.   23.95688     +0.75767109     -0.65041783
a   2.7211601      Node    16.96165     +0.56506283     +0.61254897
e   0.6071409      Incl.   10.62103     +0.32655554     +0.44915521
P   4.49           H   19.4           G... | Blobrana | 0 |  |  | 
		
			
			
				
				
					|   |  | Asteroid 2011 WP69
					
					
					
					
						
					
					
						
							(Preview) 
						
							
								Orbital elements:
2011 WP69                                                Earth MOID = 0.1062 AU
Epoch 2011 Aug. 27.0 TT = JDT 2455800.5                 MPC
M 319.68397              (2000.0)            P               Q
n   0.44216814     Peri.  341.04884     +0.43770243     -0.86740841
a   1.7063879      Node    82.39888     +0.85269900     +0.31697363
e   0.3660792      Incl.   13.81466     +0.28516837     +0.38357576
P   2.23           H   23.1...                                    | Blobrana | 0 |  |  | 
		
			
			
				
				
					|   |  | Asteroid 2011 WN69
					
					
					
					
						
					
					
						
							(Preview) 
						
							
								Orbital elements:
2011 WN69                                                Earth MOID = 0.0004 AU
Epoch 2011 Aug. 27.0 TT = JDT 2455800.5                 MPC
M 348.74954              (2000.0)            P               Q
n   0.23951555     Peri.   89.80768     +0.88682857     +0.45247119
a   2.5679126      Node   243.28891     -0.45465187     +0.81805094
e   0.7842295      Incl.    6.02973     -0.08262430     +0.35505279
P   4.12           H   26.2           G...                      | Blobrana | 0 |  |  | 
		
			
			
				
				
					|   |  | Asteroid 2011 WS46
					
					
					
					
						
					
					
						
							(Preview) 
						
							
								Orbital elements:
2011 WS46                                                Earth MOID = 0.0229 AU
Epoch 2011 Aug. 27.0 TT = JDT 2455800.5                 MPC
M 246.30557              (2000.0)            P               Q
n   0.73892423     Peri.  279.23386     -0.89299725     -0.31471961
a   1.2117214      Node   243.00352     +0.39393214     -0.89228279
e   0.4645812      Incl.   21.16592     -0.21765425     -0.32370200
P   1.33           H   23....                                     | Blobrana | 0 |  |  | 
		
			
			
				
				
					|   |   | Asteroid 2011 WR46
					
					
					
					
						
					
					
						
							(Preview) 
						
							
								Orbital elements:
2011 WR46                                           PHA, Earth MOID = 0.0273 AU
Epoch 2011 Aug. 27.0 TT = JDT 2455800.5                 MPC
M 317.80360              (2000.0)            P               Q
n   0.29095977     Peri.  323.51855     -0.91239149     +0.40304296
a   2.2555238      Node   240.39791     -0.35343960     -0.86373857
e   0.8815834      Incl.    4.71042     -0.20645149     -0.30250959
P   3.39           H...                                        | Blobrana | 0 |  |  | 
		
			
			
				
				
					|   |  | Asteroid 2011 WP46
					
					
					
					
						
					
					
						
							(Preview) 
						
							
								Orbital elements:
2011 WP46                                                Earth MOID = 0.3397 AU
Epoch 2011 Aug. 27.0 TT = JDT 2455800.5                 MPC
M  25.22327              (2000.0)            P               Q
n   0.39224258     Peri.  251.07243     +0.56864609     +0.66209556
a   1.8482735      Node    63.77851     -0.38397029     +0.73844518
e   0.3749572      Incl.   32.96486     -0.72746714     +0.12778177
P   2.51           H   19.9           G... | Blobrana | 0 |  |  | 
		
			
			
				
				
					|   |  | Asteroid 2011 WO46
					
					
					
					
						
					
					
						
							(Preview) 
						
							
								Orbital elements:
2011 WO46                                                Earth MOID = 0.0319 AU
Epoch 2011 Aug. 27.0 TT = JDT 2455800.5                 MPC
M 342.78261              (2000.0)            P               Q
n   0.52239877     Peri.  281.73394     +0.99268801     +0.10518373
a   1.5268673      Node    72.24990     -0.07141385     +0.90728887
e   0.4084030      Incl.    3.56490     -0.09731689     +0.40714037
P   1.89           H   24.9           G... | Blobrana | 0 |  |  | 
		
			
			
				
				
					|   |   | Asteroid 2011 WN46
					
					
					
					
						
					
					
						
							(Preview) 
						
							
								Orbital elements:
2011 WN46                                           PHA, Earth MOID = 0.0488 AU
Epoch 2011 Aug. 27.0 TT = JDT 2455800.5                 MPC
M 243.34383              (2000.0)            P               Q
n   0.76613594     Peri.  102.80972     -0.74341781     -0.58832266
a   1.1828568      Node    42.39565     +0.26236872     -0.69405357
e   0.4353254      Incl.   28.15314     +0.61521753     -0.41492901
P   1.29           H... | Blobrana | 0 |  |  | 
		
			
			
				
				
					|   |  | Asteroid 2011 WL46
					
					
					
					
						
					
					
						
							(Preview) 
						
							
								Orbital elements:
2011 WL46                                                Earth MOID = 0.2007 AU
Epoch 2011 Aug. 27.0 TT = JDT 2455800.5                 MPC
M 331.74265              (2000.0)            P               Q
n   0.30080835     Peri.  183.94503     +0.05348050     -0.92452008
a   2.2060201      Node   263.28330     +0.92625363     +0.18712182
e   0.4626098      Incl.   22.33185     +0.37308719     -0.33203622
P   3.28           H   20.... | Blobrana | 0 |  |  |